Temperature
21 20 20 20 20 19 19 19 19 18 18 18 18 17 17 17 17 17 16 16 16 16 16 16 16 16 16 16 16 16 15 15 15 15 15 15 15 15 15 15 15 14 14
21 20 20 20 19 19 19 19 18 18 18 18 17 17 17 17 17 16 16 16 16 16 16 16 15 15 15 15 15 15 15 15 15 15 15 15 15 14 14 14 14 14 14
20 20 20 19 19 19 19 18 18 18 18 17 17 17 17 16 16 16 16 16 16 15 15 15 15 15 15 15 15 15 15 15 15 15 14 14 14 14 14 14 14 14 14
20 20 19 19 19 19 19 18 18 18 17 17 17 16 16 16 16 16 16 16 15 15 15 15 15 15 15 15 15 15 14 14 14 14 14 14 14 14 14 14 14 14 14
20 20 19 19 19 19 18 18 18 17 17 17 17 16 16 16 16 16 15 15 15 15 15 15 15 15 14 14 14 14 14 14 14 14 14 14 13 13 13 13 13 13 13
20 19 19 19 18 18 18 18 17 17 17 17 16 16 16 16 15 15 15 15 15 15 15 15 14 14 14 14 14 14 14 14 14 13 13 13 13 13 13 13 13 13 13
19 19 19 18 18 18 18 17 17 17 17 16 16 16 15 15 15 15 15 15 15 15 15 14 14 14 14 14 14 14 13 13 13 13 13 13 13 13 13 13 13 13 13
19 19 18 18 18 17 17 17 17 16 16 16 16 16 15 15 15 15 15 15 15 14 14 14 14 14 14 14 14 13 13 13 13 13 13 13 12 12 12 12 12 12 12
18 18 18 18 17 17 17 17 16 16 16 16 15 15 15 15 15 15 14 14 14 14 14 14 14 14 13 13 13 13 13 13 13 12 12 12 12 12 12 12 12 12 12
18 18 18 17 17 17 16 16 16 16 16 15 15 15 15 15 15 14 14 14 14 14 14 13 13 13 13 13 13 13 13 13 12 12 12 12 12 12 12 12 12 12 11
18 17 17 17 16 16 16 16 15 15 15 15 15 15 15 14 14 14 14 14 14 14 13 13 13 13 13 13 13 13 12 12 12 12 12 12 12 12 12 12 12 11 11
17 17 17 16 16 16 15 15 15 15 15 15 14 14 14 14 14 14 14 14 14 13 13 13 13 13 13 13 12 12 12 12 12 12 12 12 12 12 12 12 11 11 11
16 16 16 16 16 15 15 15 15 15 14 14 14 14 14 14 14 14 14 14 13 13 13 13 13 12 12 12 12 12 12 12 12 12 12 12 12 11 11 11 11 11 11
16 16 15 15 15 15 15 14 14 14 14 14 14 14 14 14 14 14 13 13 13 13 13 12 12 12 12 12 12 12 12 11 11 11 11 11 11 11 11 11 11 11 11
15 15 15 14 14 14 14 14 14 14 14 14 14 14 13 13 13 13 13 13 13 13 13 12 12 12 12 12 12 12 11 11 11 11 11 11 11 11 11 11 11 11 10
15 14 14 14 14 14 14 14 14 13 13 13 13 13 13 13 13 13 13 13 13 12 12 12 12 12 12 11 11 11 11 11 11 11 11 11 11 11 10 10 10 10 10
14 14 14 13 13 13 13 13 13 13 13 13 13 13 13 13 13 13 13 12 12 12 12 12 12 12 11 11 11 11 11 11 11 11 11 11 11 11 10 10 10 10 10
13 13 13 13 13 13 13 13 13 12 12 13 13 13 13 12 12 12 12 12 12 12 12 12 12 11 11 11 11 11 11 11 11 10 10 10 10 10 10 10 10 10 10
13 13 13 13 13 12 12 12 12 12 12 12 12 12 12 12 12 12 12 12 12 12 12 12 11 11 11 11 11 11 11 11 10 10 10 10 10 10 10 10 10 10 10
13 13 13 12 12 12 12 12 12 12 12 12 12 12 12 12 12 12 12 12 12 12 11 11 11 11 11 11 11 11 10 10 10 10 10 10 10 10 10 10 10 10 10
12 12 12 12 12 12 12 11 11 11 11 11 11 11 11 11 11 11 11 11 11 11 11 11 11 11 11 11 10 10 10 10 10 10 10 10 10 10 10 9 9 9 9
12 12 12 12 12 11 11 11 11 11 11 11 11 11 11 11 11 11 11 11 11 11 11 11 11 11 11 10 10 10 10 10 10 10 10 10 9 9 9 9 9 9 9
11 11 11 11 11 11 11 11 11 11 11 10 10 10 10 10 10 10 10 10 10 10 10 10 10 10 10 10 10 10 10 10 10 10 10 10 9 9 9 9 9 9 9
11 11 11 10 10 10 10 10 10 10 10 10 10 10 10 10 10 10 10 10 10 10 10 10 10 10 10 10 10 10 10 10 9 9 9 9 9 9 9 9 9 9 9
10 10 10 10 10 10 10 10 10 10 9 9 9 10 10 10 10 10 10 10 9 10 10 10 10 10 10 10 10 10 10 9 9 9 9 9 9 9 9 9 9 9 9
10 10 10 10 10 9 9 9 9 9 9 9 9 9 9 9 9 9 9 9 9 9 9 9 9 9 9 9 9 9 9 9 9 9 9 9 9 9 9 9 9 9 9
Wind_Speed
7 6 6 6 6 5 5 6 5 4 5 4 4 3 3 3 3 3 2 1 1 0 0 1 0 0 0 1 1 1 1 2 2 2 1 1 1 1 1 3 4 5 6
6 6 6 5 5 5 4 4 5 5 5 4 4 4 3 3 3 3 3 1 1 1 1 0 0 0 1 1 0 0 1 1 3 1 2 1 1 2 2 2 2 3 4
5 5 5 4 4 4 5 4 4 4 4 4 3 3 3 3 3 3 2 2 2 2 1 1 1 1 0 1 0 0 0 0 1 2 1 1 1 1 1 2 1 1 3
5 5 5 5 5 4 4 4 5 5 5 4 3 3 3 3 3 3 3 2 1 1 1 1 1 2 2 2 1 1 1 1 1 1 1 1 1 1 0 1 2 2 3
5 5 5 5 4 4 4 4 4 5 5 4 3 3 3 3 3 4 3 3 2 1 1 1 2 2 3 2 2 2 1 1 1 1 1 1 1 1 1 1 2 2 3
6 5 4 4 4 4 4 4 4 4 4 4 4 4 3 3 4 5 4 3 3 2 2 2 2 2 1 2 2 3 3 3 3 2 2 2 3 3 2 2 2 1 3
6 5 4 4 4 4 4 4 4 4 4 4 4 4 4 4 5 5 6 4 4 4 4 3 3 2 2 2 2 2 2 4 4 4 4 5 4 4 3 3 3 3 4
5 5 4 4 4 4 4 4 4 4 4 4 4 4 4 4 5 4 5 3 3 4 4 4 3 3 2 2 2 2 2 3 4 3 4 5 5 5 5 5 5 4 3
5 5 5 5 5 4 4 4 4 4 4 4 3 4 4 5 6 6 4 2 2 3 3 3 3 3 3 3 2 2 3 4 4 4 4 5 6 5 4 2 1 1 2
5 5 4 4 5 5 5 4 3 4 4 3 3 4 5 5 6 6 5 3 2 2 2 2 4 4 4 3 3 3 3 4 4 4 4 5 5 4 4 4 4 3 2
4 4 4 4 4 4 4 3 3 3 3 3 3 3 4 5 6 7 6 4 4 3 3 3 3 5 5 4 4 4 6 4 3 3 3 4 4 3 3 3 4 5 4
3 3 3 3 3 3 3 2 2 3 3 3 2 3 3 4 5 7 8 7 6 4 4 4 5 6 6 5 4 5 5 3 1 2 3 4 4 4 4 4 4 5 5
3 3 3 3 2 2 3 3 2 2 3 3 3 3 3 2 3 6 7 7 7 5 5 6 6 7 5 4 6 6 3 2 2 3 4 5 4 4 3 3 3 3 4
3 2 2 2 1 1 1 2 2 3 3 3 3 4 3 2 3 3 3 3 4 4 4 4 5 5 4 4 4 3 3 4 4 4 5 4 3 3 3 3 2 2 2
2 1 1 1 2 1 1 1 2 3 4 5 4 4 4 4 6 7 5 4 4 5 3 1 1 1 2 3 3 3 3 3 4 4 4 4 3 3 3 2 2 2 2
2 1 1 1 1 1 1 1 2 2 3 4 5 5 4 6 7 7 7 7 7 5 3 2 4 4 5 5 5 4 3 4 5 4 4 4 4 4 4 3 3 3 4
1 1 1 1 1 2 2 2 2 3 3 3 4 5 5 5 6 6 7 6 5 5 3 4 5 6 5 5 5 5 5 5 4 5 5 5 5 4 3 4 3 3 4
0 1 1 2 2 2 3 3 3 2 3 3 4 5 5 5 5 5 4 2 2 3 4 5 6 6 6 5 5 5 5 5 4 5 5 5 5 4 4 4 4 4 4
1 2 2 1 2 2 2 2 2 3 3 3 2 3 4 3 3 4 3 3 4 5 5 5 6 6 6 6 5 5 5 5 5 4 5 5 5 4 4 4 4 5 4
2 4 2 2 2 2 2 2 2 3 3 3 3 3 1 0 2 3 3 4 5 5 5 6 6 6 6 6 5 5 4 5 5 5 5 5 5 4 5 5 4 4 4
2 3 3 2 2 2 2 2 2 3 3 3 4 4 4 3 4 5 5 5 6 6 6 6 5 6 6 5 5 6 6 5 5 5 5 5 5 5 4 4 4 4 4
2 2 2 2 2 2 2 2 2 2 3 3 3 3 5 4 4 4 5 5 6 5 5 5 5 5 5 5 5 5 5 5 5 5 5 5 5 4 4 4 4 4 4
1 2 2 2 2 3 2 2 2 2 2 2 3 3 3 3 4 4 4 5 4 5 4 4 4 4 5 5 5 5 6 7 6 6 6 5 5 4 4 5 5 5 5
1 2 2 2 2 2 2 3 3 3 3 3 3 3 4 4 4 4 4 4 4 4 4 4 4 6 6 5 5 6 7 7 7 6 7 7 6 5 5 5 5 6 5
2 2 2 3 3 3 3 3 3 3 3 3 3 4 4 4 4 4 4 4 4 4 4 4 3 4 5 6 6 6 8 9 8 7 6 6 7 7 6 6 5 5 5
2 2 3 3 3 2 2 2 3 3 3 4 4 4 4 4 4 4 4 3 3 3 3 3 4 4 4 4 5 5 5 6 8 8 7 6 6 6 6 5 6 5 5
Wind_Direction
174 177 179 187 188 181 181 185 180 173 164 169 175 178 181 172 157 145 158 150 140 299 293 147 195 320 356 343 18 102 125 142 176 271 274 287 265 272 280 237 230 221 230
181 176 180 180 174 173 180 182 173 169 165 165 166 165 171 170 167 164 171 160 172 216 240 147 254 32 38 357 31 59 135 157 165 231 306 325 280 253 253 247 242 229 231
170 166 167 173 173 179 181 176 171 166 160 155 158 163 172 176 175 172 172 185 196 210 207 196 226 136 316 305 353 26 240 101 136 169 272 294 294 294 321 303 293 288 259
164 164 167 178 181 182 177 175 173 166 161 164 163 169 175 175 169 166 163 182 199 214 215 215 221 187 206 216 218 222 186 94 95 123 277 300 290 288 83 304 308 290 273
156 159 174 179 175 171 173 179 174 169 170 166 157 172 184 178 177 168 174 182 188 207 257 245 238 211 198 210 212 197 163 154 154 167 259 296 288 300 264 252 267 284 281
156 168 173 169 172 181 187 180 172 169 167 163 170 182 187 198 185 178 179 192 200 210 234 253 263 254 248 243 223 200 185 188 204 210 238 246 258 253 242 233 243 277 283
160 167 171 172 177 189 183 166 175 181 176 182 185 185 196 207 199 193 190 193 212 222 225 236 254 257 246 236 255 262 249 237 217 204 221 241 246 245 235 244 235 226 241
165 171 171 169 175 177 168 175 190 181 181 192 196 195 197 210 203 203 204 202 219 230 227 220 224 243 245 220 216 247 267 267 252 236 226 239 241 234 220 220 225 239 269
173 182 180 175 176 180 189 198 194 183 191 200 201 197 201 217 210 211 199 195 227 250 244 221 210 218 245 216 192 232 280 293 295 280 266 269 267 254 225 199 216 199 270
187 184 179 174 179 191 197 200 195 188 195 193 207 212 206 212 213 208 193 189 217 244 257 239 225 224 232 205 194 208 243 270 285 302 302 301 296 285 252 211 203 208 236
185 170 167 174 191 196 191 193 190 186 186 195 212 222 214 216 215 209 195 190 204 216 229 239 244 234 230 224 213 215 234 244 256 267 284 294 296 287 271 244 211 199 210
156 163 177 191 200 188 180 193 183 176 186 207 219 245 246 235 222 216 208 208 204 202 223 230 237 237 236 239 242 243 247 248 253 269 278 279 276 272 266 256 240 228 225
147 171 188 193 198 177 172 183 182 181 189 210 216 236 255 255 236 225 219 218 212 211 227 234 246 245 243 248 251 248 233 222 236 259 264 263 258 258 266 274 275 267 275
141 174 179 173 174 155 169 175 181 196 202 214 219 229 241 240 237 229 226 226 223 230 239 249 262 255 248 254 261 248 227 225 230 242 254 263 273 273 265 252 253 260 281
109 111 123 148 150 144 158 194 187 218 217 209 216 212 211 231 235 219 212 219 220 226 211 210 238 252 251 260 269 263 250 246 248 249 248 258 267 269 265 251 232 229 238
97 91 121 130 167 152 143 344 332 284 266 240 227 216 229 234 230 223 224 228 230 218 182 212 228 232 235 240 245 253 247 243 245 242 243 244 247 250 257 256 232 225 238
134 186 196 189 197 204 199 201 267 311 309 283 259 243 240 244 240 231 230 233 232 192 196 224 229 232 235 238 240 241 244 242 238 236 239 242 242 244 247 249 244 240 245
242 219 220 220 225 229 229 224 219 229 265 285 280 261 255 252 251 237 219 188 238 213 220 228 233 232 231 233 239 240 245 246 240 239 240 243 239 239 243 248 246 242 245
278 269 249 240 229 230 229 226 231 237 244 259 279 290 272 261 263 248 204 206 228 239 237 237 236 232 232 232 233 234 236 239 239 236 239 239 239 237 242 243 244 244 245
279 286 278 256 259 261 244 233 234 238 247 251 253 257 249 225 257 249 231 229 234 243 244 245 244 236 232 232 229 229 235 239 239 237 235 234 234 237 240 241 241 245 244
266 283 294 291 263 257 261 252 237 232 243 252 254 255 230 230 237 239 238 237 236 241 245 244 245 241 235 231 229 228 230 239 240 238 235 234 230 234 236 232 237 243 245
254 263 265 261 259 258 262 251 232 232 245 258 274 275 251 251 251 253 248 248 243 239 238 238 241 239 234 230 228 228 231 238 241 237 234 233 229 226 227 229 233 239 238
240 257 270 272 267 267 275 270 247 240 252 263 266 265 258 254 256 255 258 262 257 249 242 240 246 249 242 235 228 223 228 234 232 226 226 229 228 228 228 229 230 234 237
258 257 262 263 261 258 261 267 260 254 252 257 262 261 257 257 262 263 267 274 270 261 254 248 248 247 242 243 235 230 232 234 229 225 222 223 226 227 222 225 225 224 228
279 266 263 263 264 261 257 260 262 262 259 260 264 267 268 266 266 267 270 270 266 268 271 266 258 255 251 250 248 245 240 235 231 226 225 224 223 222 218 219 218 222 220
259 265 269 267 267 260 252 254 258 259 257 259 261 261 263 264 266 265 269 266 262 268 275 273 266 262 267 265 265 259 245 241 235 228 221 218 215 219 214 216 212 213 211
Height
1512 1514 1515 1516 1517 1519 1519 1520 1521 1521 1522 1522 1522 1522 1523 1523 1523 1523 1523 1523 1523 1523 1523 1522 1522 1522 1522 1522 1522 1522 1522 1522 1522 1522 1523 1523 1522 1522 1522 1521 1521 1521 1521
1510 1512 1513 1514 1515 1516 1517 1518 1519 1519 1519 1519 1520 1520 1520 1521 1521 1521 1521 1521 1521 1521 1521 1521 1520 1521 1520 1520 1520 1520 1520 1520 1520 1520 1520 1520 1520 1520 1519 1519 1519 1519 1518
1509 1510 1511 1512 1513 1514 1515 1516 1516 1517 1517 1517 1518 1518 1519 1519 1519 1519 1519 1519 1519 1519 1519 1519 1519 1519 1519 1519 1518 1518 1518 1518 1518 1518 1517 1518 1517 1517 1517 1517 1516 1516 1516
1507 1508 1509 1510 1511 1512 1513 1513 1514 1514 1514 1515 1516 1516 1517 1517 1517 1517 1517 1517 1517 1517 1518 1518 1517 1517 1517 1517 1517 1516 1516 1516 1516 1516 1515 1515 1515 1515 1514 1514 1513 1513 1512
1505 1505 1506 1507 1508 1509 1510 1511 1511 1511 1512 1513 1513 1514 1514 1514 1515 1515 1515 1515 1515 1515 1515 1515 1515 1515 1515 1515 1515 1515 1514 1514 1514 1513 1513 1512 1512 1512 1511 1511 1510 1509 1509
1503 1503 1504 1505 1506 1506 1507 1507 1508 1509 1509 1510 1511 1511 1512 1512 1513 1513 1513 1513 1512 1512 1512 1513 1513 1513 1513 1513 1512 1512 1512 1512 1511 1511 1510 1510 1509 1509 1509 1508 1507 1506 1505
1500 1501 1502 1503 1503 1503 1504 1504 1505 1506 1506 1507 1508 1509 1509 1510 1510 1510 1510 1510 1510 1509 1510 1510 1510 1510 1510 1510 1510 1510 1509 1509 1509 1509 1508 1507 1507 1506 1506 1505 1504 1503 1502
1497 1499 1500 1500 1501 1501 1501 1502 1502 1503 1503 1504 1505 1505 1506 1507 1507 1507 1507 1507 1507 1507 1507 1507 1508 1508 1508 1507 1507 1507 1506 1506 1506 1505 1505 1504 1504 1503 1502 1502 1501 1500 1499
1495 1496 1497 1497 1498 1498 1499 1499 1500 1500 1501 1501 1502 1502 1503 1504 1504 1505 1505 1504 1504 1505 1505 1505 1505 1505 1505 1505 1504 1504 1503 1503 1503 1502 1502 1501 1500 1500 1499 1498 1497 1496 1495
1492 1493 1494 1495 1496 1496 1496 1497 1497 1498 1498 1499 1499 1500 1500 1501 1502 1502 1502 1502 1501 1501 1502 1502 1502 1502 1502 1502 1501 1500 1500 1499 1499 1499 1498 1498 1497 1496 1496 1495 1494 1493 1491
1490 1491 1491 1492 1493 1493 1494 1494 1494 1495 1495 1496 1496 1497 1498 1498 1499 1499 1499 1499 1499 1499 1498 1498 1499 1499 1499 1499 1498 1497 1497 1496 1496 1495 1495 1494 1493 1493 1492 1491 1490 1490 1489
1487 1488 1489 1489 1490 1491 1491 1491 1492 1493 1493 1493 1493 1493 1494 1495 1495 1496 1496 1496 1496 1496 1495 1495 1495 1496 1495 1495 1494 1494 1494 1493 1493 1492 1491 1490 1489 1489 1488 1488 1487 1487 1486
1485 1485 1486 1486 1487 1488 1488 1488 1489 1490 1490 1490 1490 1490 1491 1491 1492 1492 1492 1492 1492 1492 1492 1492 1492 1492 1492 1491 1491 1490 1490 1489 1489 1488 1487 1486 1486 1485 1485 1484 1483 1483 1482
1482 1482 1483 1483 1484 1484 1485 1485 1485 1486 1487 1487 1487 1487 1487 1487 1488 1488 1488 1488 1488 1488 1488 1488 1488 1488 1488 1488 1487 1487 1486 1486 1485 1484 1483 1483 1482 1482 1481 1480 1480 1479 1478
1479 1480 1480 1481 1480 1481 1481 1481 1481 1482 1483 1484 1484 1484 1484 1484 1484 1484 1483 1484 1484 1484 1484 1484 1484 1483 1483 1483 1483 1482 1482 1482 1481 1480 1479 1479 1478 1478 1477 1477 1476 1475 1474
1477 1477 1478 1478 1478 1477 1478 1478 1478 1479 1479 1480 1480 1480 1480 1480 1479 1479 1480 1480 1480 1480 1480 1479 1479 1479 1479 1478 1478 1478 1477 1477 1477 1476 1476 1475 1475 1474 1473 1473 1473 1472 1471
1476 1476 1476 1476 1476 1475 1476 1476 1475 1476 1476 1476 1476 1476 1476 1476 1476 1475 1476 1476 1476 1476 1475 1474 1474 1474 1474 1474 1473 1473 1473 1472 1472 1472 1471 1471 1471 1470 1469 1469 1468 1468 1467
1474 1474 1474 1474 1474 1473 1473 1473 1473 1472 1472 1472 1472 1472 1472 1472 1472 1472 1472 1472 1471 1471 1470 1470 1469 1470 1469 1469 1469 1468 1468 1468 1467 1467 1467 1467 1466 1466 1465 1465 1464 1464 1463
1473 1472 1472 1472 1471 1471 1470 1470 1470 1469 1469 1469 1469 1469 1469 1468 1468 1468 1467 1467 1466 1466 1466 1465 1465 1465 1465 1464 1464 1464 1463 1463 1462 1462 1462 1462 1462 1461 1461 1460 1460 1459 1459
1471 1470 1470 1469 1468 1468 1467 1467 1466 1466 1466 1466 1465 1465 1465 1464 1463 1463 1463 1462 1462 1462 1461 1460 1460 1460 1460 1460 1459 1459 1458 1458 1457 1457 1457 1457 1457 1456 1456 1455 1455 1455 1454
1468 1467 1467 1466 1465 1465 1464 1464 1463 1463 1462 1462 1461 1461 1461 1460 1460 1459 1458 1458 1458 1457 1457 1456 1455 1455 1455 1455 1454 1454 1453 1453 1453 1452 1452 1452 1452 1451 1451 1451 1450 1450 1450
1464 1464 1463 1462 1462 1461 1461 1460 1460 1459 1458 1458 1457 1457 1457 1457 1456 1455 1454 1454 1453 1453 1452 1452 1451 1450 1450 1449 1449 1449 1448 1448 1448 1447 1447 1447 1446 1446 1446 1446 1445 1445 1445
1461 1460 1459 1458 1458 1457 1457 1456 1456 1455 1454 1454 1453 1453 1452 1452 1451 1450 1450 1449 1449 1448 1448 1447 1446 1445 1445 1444 1444 1443 1443 1442 1442 1442 1441 1441 1441 1441 1441 1440 1440 1440 1441
1457 1456 1455 1455 1454 1453 1452 1452 1451 1451 1450 1449 1449 1448 1448 1447 1446 1445 1445 1444 1444 1443 1443 1442 1441 1440 1439 1438 1438 1437 1437 1437 1436 1436 1435 1435 1435 1435 1435 1435 1435 1436 1436
1453 1452 1452 1451 1450 1449 1448 1448 1447 1446 1446 1445 1444 1444 1443 1442 1442 1441 1440 1440 1439 1439 1438 1437 1436 1435 1434 1433 1432 1432 1431 1430 1430 1429 1429 1429 1429 1429 1430 1430 1430 1431 1431
1450 1449 1448 1447 1446 1445 1444 1444 1443 1442 1442 1441 1440 1439 1439 1438 1437 1436 1436 1435 1434 1433 1433 1432 1431 1430 1429 1428 1427 1426 1425 1424 1424 1423 1423 1423 1423 1423 1424 1424 1425 1426 1426